[[{"header":{"parameterUnit":"m.s-1","parameterCategory":1,"la1":30.2991,"la2":30.254,"lo1":-89.0895,"lo2":-89.0444,"dy":0.0017,"dx":0.0017,"nx":28,"ny":28,"refTime":"2025-05-28T21:00:00:Z","depth":0,"parameterNumber":2,"parameterNumberName":"U-component_of_WINDS"},"data":[0,0,0,0,0,0,0,0,0,0,0,0,0,0,0,0,0,0,0,0,0,0,0,0,0,0,0,0,0,0,0,0,0,0,0,0,0,0,0,0,0,0,0,0,0,0,0,0,0,0,0,0,0,0,0,0,0,0,4.3224,4.3223,0,4.3083,4.3081,4.308,4.294,4.2939,4.2937,4.2935,4.2785,4.2782,4.278,0,0,0,0,0,0,0,0,0,0,0,0,0,4.3369,4.3367,4.3224,4.3223,4.3221,4.3083,4.3081,4.3079,4.2941,4.2939,4.2936,4.2934,4.2785,4.2783,4.278,0,0,0,0,0,0,0,0,0,0,0,0,0,4.3275,4.3367,4.3225,4.3135,4.3126,4.3084,4.3081,4.3079,4.2941,4.2939,4.2936,4.2933,4.2786,4.2783,4.2779,4.2812,0,0,4.2769,4.2767,0,0,0,0,0,0,0,0,4.328,4.327,4.315,4.3141,4.3131,4.3027,4.3077,4.2989,4.2942,4.3011,4.2935,4.2932,4.2867,4.2857,4.2836,4.2805,4.2799,4.2769,4.2766,4.2765,4.2764,0,0,0,0,0,0,0,4.3287,4.3275,4.3168,4.3149,4.3137,4.3101,4.3084,4.306,4.2956,4.3005,4.2995,4.298,4.2861,4.284,4.2831,4.2797,4.2769,4.2766,4.2763,4.2762,4.2785,4.2788,0,0,0,0,0,0,4.3308,4.3281,4.3173,4.3164,4.3201,4.31,4.3082,4.3063,4.2956,4.2937,4.2983,4.2974,4.2847,4.2836,4.2826,4.2856,4.2765,4.2762,4.276,4.2782,4.2786,4.2788,0,0,0,0,0,0,4.3312,4.33,4.3178,4.322,4.3202,4.3101,4.308,4.3061,4.304,4.2939,4.2919,4.298,4.2844,4.283,4.2817,4.2848,4.276,4.2757,4.2779,4.2783,4.2787,4.2917,0,0,0,0,0,0,4.3316,4.3302,4.3314,4.3221,4.32,4.3174,4.3082,4.3061,4.3035,4.3022,4.2931,4.2913,4.2841,4.2823,4.2814,4.2842,4.2754,4.2776,4.2781,4.2786,4.291,4.2925,4.2939,0,0,0,0,0,4.3322,4.3355,4.3316,4.3303,4.3214,4.3176,4.3164,4.3081,4.3038,4.3049,4.2984,4.2916,4.2848,4.2823,4.2811,4.2839,4.2773,4.2779,4.2785,4.2903,4.2922,4.2939,0,0,0,0,0,0,4.3452,4.3342,4.3296,4.3301,4.3249,4.3153,4.3163,4.3104,4.3062,4.3052,4.295,4.2931,4.2929,4.2883,4.2857,4.2865,4.2801,4.2805,4.2895,4.2912,4.2926,4.2936,4.2751,0,0,0,0,0,4.3482,4.3463,4.3366,4.3379,4.3356,4.3265,4.3245,4.3187,4.3129,4.3105,4.3039,4.2984,4.2949,4.2928,4.2891,4.2904,4.288,4.2917,4.2932,4.2944,4.2948,4.2949,4.2964,4.2808,4.2808,4.2808,0,0,4.3542,4.3479,4.3473,4.3404,4.3357,4.3337,4.3247,4.323,4.3214,4.3102,4.3085,4.3036,4.2966,4.2966,4.2962,4.2927,4.2986,4.2952,4.2963,4.2959,4.2957,4.2972,4.2985,4.2813,4.2812,4.2811,0,0,4.3641,4.3593,4.3598,4.3554,4.3485,4.3424,4.3426,4.3339,4.3302,4.3285,4.32,4.3179,4.3122,4.3076,4.3046,4.313,4.3065,4.3121,4.3195,4.3198,4.3211,4.3221,4.3249,4.326,4.3126,4.3126,4.3126,0,4.3723,4.3692,4.3608,4.3596,4.3567,4.3469,4.3472,4.3433,4.3355,4.3337,4.33,4.3227,4.3174,4.316,4.3182,4.3161,4.3157,4.3129,4.3216,4.3226,4.3234,4.3259,4.327,4.3133,4.3132,4.3132,4.3131,0,4.3796,4.3776,4.3788,4.3717,4.3691,4.3687,4.3601,4.3584,4.3529,4.3472,4.3455,4.3388,4.3335,4.3329,4.3274,4.3307,4.3288,4.3236,4.3168,4.3257,4.3279,4.3288,4.3143,4.3141,4.3138,4.3137,0,0,4.3969,4.3854,4.386,4.3827,4.3745,4.3726,4.3718,4.3669,4.3655,4.3606,4.3594,4.355,4.3501,4.3467,4.3406,4.3409,4.3478,4.3355,4.3352,4.3378,4.3509,4.3547,4.3559,4.3437,4.3438,4.3439,4.3514,0,4.4052,4.4032,4.3957,4.3959,4.3938,4.3846,4.3838,4.3786,4.3734,4.3707,4.3648,4.3617,4.3556,4.3535,4.3534,4.347,4.3502,4.3464,4.3422,4.3421,4.3439,4.3571,4.3611,4.3684,4.3522,4.3523,4.3524,0,4.4144,4.4103,4.4104,4.4023,4.4012,4.4006,4.3955,4.3932,4.3871,4.3832,4.3796,4.3729,4.3713,4.3654,4.3629,4.3605,4.3584,4.355,4.3551,4.3541,4.3476,4.3561,4.3705,4.3715,4.3537,4.3536,4.3535,0,4.4268,4.4213,4.4206,4.418,4.4087,4.4085,4.4045,4.3982,4.3958,4.3913,4.3895,4.3849,4.3823,4.3788,4.3709,4.3674,4.3693,4.3628,4.3658,4.366,4.3663,4.3663,4.3802,4.3656,4.3656,4.3655,4.3655,0,4.4366,4.4369,4.426,4.4255,4.4256,4.417,4.4173,4.4124,4.4069,4.4052,4.3969,4.3955,4.3854,4.3827,4.3767,4.3754,4.3744,4.371,4.3693,4.3715,4.372,4.3697,4.3689,4.3658,4.3658,4.3657,4.3657,0,4.4502,4.443,4.4415,4.4329,4.4307,4.4312,4.4236,4.4227,4.4172,4.4151,4.4141,4.4052,4.4016,4.3936,4.3879,4.3838,4.384,4.3811,4.3861,4.3849,4.3883,4.388,4.401,4.4021,4.3872,4.3873,4.3875,0,4.4568,4.4569,4.4484,4.4467,4.4432,4.4407,4.4382,4.4298,4.4275,4.4207,4.4206,4.4164,4.4126,4.4074,4.4002,4.3958,4.3925,4.3974,4.3918,4.394,4.3922,4.3922,4.392,4.3985,4.3988,4.3989,4.3991,0,4.4692,4.4656,4.4625,4.4581,4.4554,4.4515,4.4471,4.4462,4.4367,4.4346,4.4309,4.4281,4.4223,4.4182,4.4127,4.4084,4.402,4.401,4.4014,4.4035,4.4062,4.4045,4.3891,4.4006,4.4004,4.4003,4.4003,4.4002,4.4792,4.4788,4.4728,4.4696,4.4655,4.4616,4.4603,4.4547,4.4516,4.4464,4.4416,4.4384,4.4323,4.4243,4.4205,4.4177,4.4145,4.4152,4.4153,4.4155,4.4164,4.4071,4.4167,4.4166,4.4166,4.4166,4.4165,0,4.4909,4.4867,4.4838,4.4781,4.4755,4.4702,4.4651,4.4632,4.4606,4.4555,4.4521,4.4479,4.4439,4.4366,4.432,4.4311,4.4281,4.4302,4.4299,4.429,4.4196,4.4196,4.4327,4.4327,4.4327,4.4327,4.4327,4.4327,4.4967,4.4957,4.4915,4.4884,4.484,4.481,4.4785,4.4748,4.4708,4.4665,4.4633,4.4587,4.4526,4.4475,4.4436,4.4415,4.44,4.443,4.44,4.4312,4.4297,4.4282,4.4281,4.4428,4.4428,4.4495,4.4496,4.4496]},{"header":{"parameterUnit":"m.s-1","parameterCategory":1,"la1":30.2991,"la2":30.254,"lo1":-89.0895,"lo2":-89.0444,"dy":0.0017,"dx":0.0017,"nx":28,"ny":28,"refTime":"2025-05-28T21:00:00:Z","depth":0,"parameterNumber":3,"parameterNumberName":"V-component_of_WINDS"},"data":[0,0,0,0,0,0,0,0,0,0,0,0,0,0,0,0,0,0,0,0,0,0,0,0,0,0,0,0,0,0,0,0,0,0,0,0,0,0,0,0,0,0,0,0,0,0,0,0,0,0,0,0,0,0,0,0,0,0,2.0266,2.0273,0,2.0923,2.0931,2.0938,2.115,2.1147,2.1144,2.1141,2.1808,2.1828,2.1848,0,0,0,0,0,0,0,0,0,0,0,0,0,1.9182,1.9201,2.0265,2.0274,2.0282,2.0922,2.0931,2.094,2.1151,2.1147,2.1144,2.114,2.1802,2.1826,2.185,0,0,0,0,0,0,0,0,0,0,0,0,0,1.9727,1.9207,2.0264,2.0464,2.0489,2.092,2.0931,2.0943,2.1151,2.1147,2.1143,2.1138,2.1793,2.1823,2.1854,2.2132,0,0,2.1948,2.1961,0,0,0,0,0,0,0,0,1.9696,1.9766,2.0427,2.0451,2.0479,2.095,2.0794,2.1341,2.1153,2.09,2.1141,2.1136,2.1526,2.1578,2.1711,2.2163,2.2191,2.195,2.1969,2.1982,2.1991,0,0,0,0,0,0,0,1.9658,1.9739,2.0526,2.0436,2.0468,2.0518,2.059,2.0898,2.1229,2.0921,2.0938,2.1014,2.1539,2.1681,2.1728,2.2201,2.1949,2.1977,2.1996,2.2008,2.291,2.2915,0,0,0,0,0,0,1.9587,1.9706,2.0505,2.0545,2.0069,2.0541,2.0622,2.0803,2.1227,2.1287,2.1017,2.1021,2.1631,2.1692,2.1753,2.2106,2.1982,2.2011,2.2028,2.2904,2.2911,2.2917,0,0,0,0,0,0,1.9563,1.9656,2.0478,2.0131,2.0239,2.0564,2.0766,2.0819,2.0961,2.1299,2.1358,2.1101,2.163,2.1709,2.2036,2.2132,2.2025,2.2053,2.2898,2.2906,2.2914,2.2813,0,0,0,0,0,0,1.9531,1.9647,1.9759,2.0132,2.0257,2.0753,2.0772,2.0835,2.1014,2.1026,2.1394,2.1451,2.1632,2.1988,2.2066,2.2172,2.2077,2.2891,2.2902,2.2911,2.281,2.2817,2.2824,0,0,0,0,0,1.9492,1.9703,1.9763,1.9858,2.0404,2.0758,2.083,2.1037,2.1021,2.1135,2.135,2.1439,2.2107,2.202,2.2109,2.2226,2.2886,2.2899,2.2911,2.2807,2.2816,2.2823,0,0,0,0,0,0,1.9332,1.9756,1.9827,2.0167,2.0425,2.0793,2.0944,2.104,2.1307,2.1307,2.1549,2.163,2.1938,2.2114,2.201,2.2515,2.25,2.2531,2.239,2.2402,2.2409,2.2361,2.2102,0,0,0,0,0,1.9336,1.9591,1.9947,2.0211,2.0337,2.0617,2.0779,2.0916,2.1192,2.1302,2.1543,2.1805,2.2074,2.2247,2.2514,2.2833,2.2916,2.2957,2.2964,2.2968,2.2993,2.3173,2.3195,2.2958,2.2958,2.2958,0,0,1.9348,1.9611,1.9757,2.0186,2.0402,2.0658,2.0708,2.0977,2.1169,2.1343,2.1667,2.185,2.2159,2.2483,2.2637,2.2639,2.3075,2.2984,2.2984,2.3009,2.3188,2.321,2.323,2.2966,2.2965,2.2963,0,0,1.9501,1.9725,1.9971,2.0186,2.0512,2.0696,2.0753,2.1108,2.1237,2.1566,2.1701,2.1928,2.2388,2.2602,2.2771,2.2996,2.3087,2.3075,2.3114,2.3286,2.3305,2.3323,2.3404,2.343,2.3098,2.3098,2.3098,0,1.9474,1.9869,2.0083,2.0347,2.0529,2.0698,2.0945,2.1142,2.1538,2.1659,2.1654,2.2232,2.2452,2.2827,2.2881,2.3012,2.3084,2.3038,2.3285,2.3305,2.3325,2.3405,2.3435,2.3095,2.3095,2.3095,2.3096,0,1.9819,2.0089,2.0247,2.0627,2.0827,2.108,2.1329,2.1505,2.1621,2.1803,2.2132,2.2401,2.2724,2.2821,2.2938,2.3212,2.3203,2.3238,2.3229,2.3341,2.342,2.3452,2.309,2.3091,2.3092,2.3093,0,0,1.9898,2.0389,2.0443,2.0616,2.0986,2.1198,2.1454,2.1771,2.1917,2.2181,2.2402,2.2783,2.2818,2.3008,2.3149,2.3299,2.346,2.3317,2.3328,2.3336,2.3778,2.3751,2.3783,2.3519,2.3526,2.3532,2.3752,0,2.01,2.0573,2.077,2.115,2.1401,2.156,2.1784,2.2032,2.2207,2.2442,2.2634,2.2901,2.2926,2.3042,2.3198,2.3407,2.3552,2.3394,2.3727,2.3736,2.3649,2.3825,2.38,2.3995,2.3784,2.379,2.3794,0,2.0402,2.067,2.1074,2.141,2.1523,2.1721,2.2026,2.2249,2.2531,2.2647,2.2856,2.2988,2.326,2.3227,2.3604,2.3492,2.3638,2.376,2.3773,2.3815,2.3775,2.3874,2.4063,2.4093,2.3844,2.384,2.3837,0,2.042,2.088,2.1183,2.1325,2.1724,2.1859,2.2031,2.2309,2.2485,2.2748,2.2865,2.3154,2.3314,2.3533,2.3738,2.3695,2.4094,2.408,2.4198,2.4192,2.428,2.4272,2.4497,2.4367,2.4366,2.4365,2.4365,0,2.0628,2.087,2.1196,2.1382,2.1655,2.1876,2.2139,2.2321,2.2566,2.2787,2.2939,2.3143,2.3399,2.3633,2.3793,2.408,2.415,2.425,2.4291,2.424,2.4227,2.4342,2.4335,2.4374,2.4372,2.437,2.4369,0,2.0698,2.0926,2.1266,2.1614,2.1706,2.1892,2.2189,2.2373,2.2552,2.2829,2.2907,2.3187,2.3471,2.3695,2.4064,2.4171,2.4473,2.4517,2.4379,2.4401,2.4508,2.4495,2.4818,2.4871,2.47,2.4701,2.4702,0,2.0818,2.1008,2.1376,2.1536,2.1706,2.1962,2.2142,2.2363,2.2544,2.2877,2.3019,2.3313,2.3562,2.4006,2.4241,2.4522,2.4575,2.4668,2.4619,2.456,2.4579,2.4567,2.4586,2.4675,2.4676,2.4676,2.4677,0,2.1007,2.1109,2.1366,2.166,2.187,2.2112,2.2357,2.2477,2.2742,2.2936,2.3229,2.3421,2.3796,2.4086,2.4391,2.4564,2.4664,2.4689,2.4732,2.4684,2.4598,2.4648,2.4398,2.4683,2.4682,2.4682,2.4681,2.4681,2.1109,2.1284,2.157,2.1848,2.2055,2.2278,2.2468,2.267,2.2918,2.3244,2.3357,2.3657,2.3928,2.4349,2.4522,2.4758,2.4765,2.4826,2.4843,2.4855,2.485,2.4555,2.4813,2.4814,2.4814,2.4814,2.4814,0,2.1308,2.1498,2.1751,2.2089,2.2306,2.2381,2.2653,2.283,2.3093,2.3339,2.3579,2.3912,2.4191,2.4445,2.4736,2.4875,2.4928,2.4944,2.4938,2.4976,2.4827,2.4762,2.4896,2.4896,2.4896,2.4896,2.4896,2.4896,2.1437,2.1738,2.1872,2.2274,2.2462,2.276,2.2908,2.3114,2.3311,2.3677,2.3911,2.4075,2.4323,2.4632,2.489,2.4957,2.5058,2.5062,2.5141,2.4998,2.4987,2.4976,2.4917,2.5082,2.5082,2.5272,2.5274,2.5275]}]]